Flag for United Arab Emirates Weather past 2 weeks in Al Ain, Abu Dhabi, United Arab Emirates

Now
77 °F

Passing clouds.


Feels Like: 79 °F
Forecast: 52 / 77 °F
Wind: 6 mph from Southwest

Location: Al Ain International Airport

Current Time: Dec 26, 2014 at 2:56:33 PM

Latest Report: Dec 26, 2014 at 2:00 PM


Visibility: N/A

Pressure: 30.12 "Hg

Humidity: 47%

Dew point: 55 °F

Location of Al AinLocation

Historic Weather in Al Ain — Graph

°F

Al Ain temperature yesterday

Maximum temperature yesterday: 75 °F (at 3:00 PM)
Minimum temperature yesterday: 57 °F (at 5:00 AM)
Average temperature yesterday: 65 °F

Past Weeks' High & Low Weather Summary

 TemperatureHumidityPressure
High82 °F (Dec 13, 3:00 PM)94% (Dec 12, 2:00 AM)30.27 "Hg (Dec 12, 2:00 AM)
Low54 °F (Dec 26, 5:00 AM)20% (Dec 13, 3:00 PM)29.95 "Hg (Dec 22, 2:00 PM)
Average68 °F55%30.11 "Hg
* Reported Dec 11 1:00 PM — Dec 26 1:00 PM, Al Ain, Weather by CustomWeather, © 2014

Note: Actual official high and low records may vary slightly from our data, if they occured in-between our weather recording intervals... More about our weather records

Advertising

Al Ain weather history for previous 24 hours

 ConditionsComfort  
Time TempWeatherWind HumidityBarometerVisibility
1:00 PM
Dec 26
75 °FPassing clouds.6 mph50%30.15 "HgN/A
12:00 PM73 °FPassing clouds.6 mph50%30.18 "HgN/A
11:00 AM70 °FSunny.1 mph53%30.21 "Hg10 mi
10:00 AM64 °FSunny.3 mph68%30.21 "Hg10 mi
9:00 AM59 °FClear.5 mph82%30.21 "Hg5 mi
8:00 AM55 °FHaze.6 mph88%30.21 "Hg3 mi
7:00 AM54 °FHaze.5 mph94%30.18 "Hg2 mi
6:00 AM54 °FHaze.6 mph94%30.18 "Hg3 mi
5:00 AM54 °FHaze.8 mph94%30.15 "Hg3 mi
4:00 AM55 °FClear.9 mph88%30.15 "Hg4 mi
3:00 AM57 °FClear.8 mph88%30.18 "Hg10 mi
2:00 AM59 °FClear.9 mph82%30.18 "Hg10 mi
1:00 AM59 °FClear.8 mph82%30.18 "Hg10 mi
12:00 AM59 °FClear.7 mph77%30.18 "Hg10 mi
11:00 PM
Dec 25
61 °FClear.7 mph77%30.21 "Hg10 mi
10:00 PM63 °FClear.7 mph73%30.21 "Hg10 mi
9:00 PM63 °FClear.6 mph73%30.21 "Hg10 mi
8:00 PM64 °FClear.10 mph64%30.21 "Hg10 mi
7:00 PM68 °FClear.12 mph56%30.18 "Hg10 mi
6:00 PM70 °FClear.14 mph53%30.18 "Hg10 mi
5:00 PM73 °FSunny.16 mph44%30.15 "Hg10 mi
4:00 PM73 °FPassing clouds.13 mph44%30.15 "HgN/A
3:00 PM75 °FSunny.14 mph39%30.15 "Hg10 mi
2:00 PM73 °FPassing clouds.12 mph44%30.18 "HgN/A
Weather by CustomWeather, © 2014

See weather overviewHow to use our weather pages